"Sample Date","Sample Time","Sample Value","Units","Flow Rate","Sample Interval","Number Channels","Micron Size 0","Counts/Channel 0","Micron Size 1","Counts/Channel 1","Micron Size 2","Counts/Channel 2","Micron Size 3","Counts/Channel 3","Micron Size 4","Counts/Channel 4","Micron Size 5","Counts/Channel 5","Micron Size 6","Counts/Channel 6","Micron Size 7","Counts/Channel 7","Micron Size 8","Counts/Channel 8","Micron Size 9","Counts/Channel 9","Micron Size 10","Counts/Channel 10","Micron Size 11","Counts/Channel 11","Micron Size 12","Counts/Channel 12","Micron Size 13","Counts/Channel 13","Micron Size 14","Counts/Channel 14","Micron Size 15","Counts/Channel 15","Micron Size 16","Counts/Channel 16","Micron Size 17","Counts/Channel 17","Micron Size 18","Counts/Channel 18","Micron Size 19","Counts/Channel 19","Micron Size 20","Counts/Channel 20","Micron Size 21","Counts/Channel 21","Micron Size 22","Counts/Channel 22","Micron Size 23","Counts/Channel 23","Micron Size 24","Counts/Channel 24","Micron Size 25","Counts/Channel 25","Micron Size 26","Counts/Channel 26","Micron Size 27","Counts/Channel 27","Micron Size 28","Counts/Channel 28","Micron Size 29","Counts/Channel 29","Micron Size 30","Counts/Channel 30","Micron Size 31","Counts/Channel 31"
"03/08/08","15:00:02",105757.000,"cc",28331.772,6.00,6,0.100,93508.000,0.200,10372.000,0.300,948.000,0.500,673.000,1.000,256.000,5.000,0
"03/08/08","15:00:08",108856.000,"cc",28305.650,6.00,6,0.100,96388.000,0.200,10639.000,0.300,945.000,0.500,631.000,1.000,253.000,5.000,0
"03/08/08","15:00:14",227614.000,"cc",28393.123,6.00,6,0.100,199499.000,0.200,24434.000,0.300,2001.000,0.500,1161.000,1.000,519.000,5.000,0
"03/08/08","15:00:20",137804.000,"cc",28229.139,6.00,6,0.100,121994.000,0.200,13701.000,0.300,1125.000,0.500,678.000,1.000,306.000,5.000,0
"03/08/08","15:00:26",102141.000,"cc",28316.363,6.00,6,0.100,90171.000,0.200,10328.000,0.300,891.000,0.500,537.000,1.000,214.000,5.000,0
"03/08/08","15:00:32",114313.000,"cc",28285.147,6.00,6,0.100,101205.000,0.200,11550.000,0.300,833.000,0.500,504.000,1.000,221.000,5.000,0
"03/08/08","15:00:38",247794.000,"cc",28335.758,6.00,6,0.100,218478.000,0.200,26775.000,0.300,1716.000,0.500,598.000,1.000,227.000,5.000,0
"03/08/08","15:00:44",183043.000,"cc",28334.205,6.00,6,0.100,161457.000,0.200,19336.000,0.300,1378.000,0.500,643.000,1.000,229.000,5.000,0
"03/08/08","15:00:50",179425.000,"cc",28407.568,6.00,6,0.100,158721.000,0.200,18519.000,0.300,1296.000,0.500,663.000,1.000,226.000,5.000,0
"03/08/08","15:00:56",146203.000,"cc",28299.080,6.00,6,0.100,129413.000,0.200,14799.000,0.300,1140.000,0.500,608.000,1.000,243.000,5.000,0
"03/08/08","15:01:02",237500.000,"cc",28320.799,6.00,6,0.100,209207.000,0.200,25745.000,0.300,1666.000,0.500,671.000,1.000,211.000,5.000,0
"03/08/08","15:01:08",191461.000,"cc",28328.125,6.00,6,0.100,170029.000,0.200,19539.000,0.300,1239.000,0.500,485.000,1.000,169.000,5.000,0
"03/08/08","15:01:14",179471.000,"cc",28271.707,6.00,6,0.100,159026.000,0.200,18138.000,0.300,1443.000,0.500,635.000,1.000,229.000,5.000,0
"03/08/08","15:01:20",143156.000,"cc",28329.873,6.00,6,0.100,127176.000,0.200,14207.000,0.300,1100.000,0.500,483.000,1.000,190.000,5.000,0
"03/08/08","15:01:26",164498.000,"cc",28367.676,6.00,6,0.100,145813.000,0.200,16546.000,0.300,1286.000,0.500,629.000,1.000,224.000,5.000,0
"03/08/08","15:01:32",163210.000,"cc",28299.219,6.00,6,0.100,144231.000,0.200,16495.000,0.300,1404.000,0.500,775.000,1.000,305.000,5.000,0
"03/08/08","15:01:38",151482.000,"cc",28335.404,6.00,6,0.100,133773.000,0.200,15556.000,0.300,1238.000,0.500,665.000,1.000,250.000,5.000,0
"03/08/08","15:01:44",177477.000,"cc",28341.709,6.00,6,0.100,156253.000,0.200,18874.000,0.300,1369.000,0.500,705.000,1.000,276.000,5.000,0
"03/08/08","15:01:50",265059.000,"cc",28324.912,6.00,6,0.100,230828.000,0.200,31214.000,0.300,2005.000,0.500,743.000,1.000,269.000,5.000,0
"03/08/08","15:01:56",221444.000,"cc",28277.123,6.00,6,0.100,195032.000,0.200,23499.000,0.300,1704.000,0.500,843.000,1.000,366.000,5.000,0
"03/08/08","15:02:02",230237.000,"cc",28345.014,6.00,6,0.100,201793.000,0.200,25290.000,0.300,1882.000,0.500,905.000,1.000,367.000,5.000,0
"03/08/08","15:02:08",162117.000,"cc",28228.975,6.00,6,0.100,143127.000,0.200,16665.000,0.300,1350.000,0.500,698.000,1.000,277.000,5.000,0
"03/08/08","15:02:14",188265.000,"cc",28364.760,6.00,6,0.100,166133.000,0.200,19782.000,0.300,1396.000,0.500,713.000,1.000,241.000,5.000,0
"03/08/08","15:02:20",223070.000,"cc",28337.617,6.00,6,0.100,197215.000,0.200,23347.000,0.300,1545.000,0.500,697.000,1.000,266.000,5.000,0
"03/08/08","15:02:26",192186.000,"cc",28328.121,6.00,6,0.100,169817.000,0.200,20088.000,0.300,1382.000,0.500,670.000,1.000,229.000,5.000,0
"03/08/08","15:02:32",149275.000,"cc",28304.088,6.00,6,0.100,132335.000,0.200,15123.000,0.300,1113.000,0.500,527.000,1.000,177.000,5.000,0
"03/08/08","15:02:38",187204.000,"cc",28310.713,6.00,6,0.100,164848.000,0.200,20173.000,0.300,1373.000,0.500,604.000,1.000,206.000,5.000,0
"03/08/08","15:02:44",232627.000,"cc",28344.994,6.00,6,0.100,205129.000,0.200,25089.000,0.300,1530.000,0.500,645.000,1.000,234.000,5.000,0
"03/08/08","15:02:50",281081.000,"cc",28335.986,6.00,6,0.100,245786.000,0.200,31792.000,0.300,2240.000,0.500,940.000,1.000,323.000,5.000,0
"03/08/08","15:02:56",278423.000,"cc",28257.486,6.00,6,0.100,243160.000,0.200,31490.000,0.300,2361.000,0.500,1046.000,1.000,366.000,5.000,0
"03/08/08","15:03:02",132239.000,"cc",28328.008,6.00,6,0.100,115963.000,0.200,13414.000,0.300,1518.000,0.500,988.000,1.000,356.000,5.000,0
"03/08/08","15:03:08",180606.000,"cc",28289.330,6.00,6,0.100,158471.000,0.200,18717.000,0.300,1967.000,0.500,1058.000,1.000,393.000,5.000,0
"03/08/08","15:03:14",142602.000,"cc",28261.611,6.00,6,0.100,125446.000,0.200,14908.000,0.300,1285.000,0.500,706.000,1.000,257.000,5.000,0
"03/08/08","15:03:20",160075.000,"cc",28342.231,6.00,6,0.100,141127.000,0.200,16563.000,0.300,1418.000,0.500,707.000,1.000,260.000,5.000,0
"03/08/08","15:03:26",241433.000,"cc",28390.961,6.00,6,0.100,211535.000,0.200,26635.000,0.300,2031.000,0.500,914.000,1.000,318.000,5.000,0
"03/08/08","15:03:32",236457.000,"cc",28326.617,6.00,6,0.100,207486.000,0.200,25805.000,0.300,2026.000,0.500,838.000,1.000,302.000,5.000,0
"03/08/08","15:03:38",232417.000,"cc",28326.424,6.00,6,0.100,204830.000,0.200,24565.000,0.300,1985.000,0.500,784.000,1.000,253.000,5.000,0
"03/08/08","15:03:44",297026.000,"cc",28298.594,6.00,6,0.100,258772.000,0.200,34928.000,0.300,2323.000,0.500,717.000,1.000,286.000,5.000,0
"03/08/08","15:03:50",316787.000,"cc",28321.416,6.00,6,0.100,276153.000,0.200,37689.000,0.300,2075.000,0.500,673.000,1.000,197.000,5.000,0
"03/08/08","15:03:56",164851.000,"cc",28324.799,6.00,6,0.100,145854.000,0.200,16881.000,0.300,1247.000,0.500,622.000,1.000,247.000,5.000,0
"03/08/08","15:04:02",169217.000,"cc",28338.236,6.00,6,0.100,148664.000,0.200,18296.000,0.300,1372.000,0.500,654.000,1.000,231.000,5.000,0
"03/08/08","15:04:08",183338.000,"cc",28302.273,6.00,6,0.100,161148.000,0.200,19777.000,0.300,1500.000,0.500,653.000,1.000,260.000,5.000,0
"03/08/08","15:04:14",244842.000,"cc",28316.088,6.00,6,0.100,214745.000,0.200,26689.000,0.300,2015.000,0.500,1034.000,1.000,359.000,5.000,0
"03/08/08","15:04:20",138220.000,"cc",28322.811,6.00,6,0.100,121325.000,0.200,14389.000,0.300,1340.000,0.500,865.000,1.000,301.000,5.000,0
"03/08/08","15:04:26",111223.000,"cc",28297.510,6.00,6,0.100,98028.000,0.200,11275.000,0.300,1052.000,0.500,648.000,1.000,220.000,5.000,0
"03/08/08","15:04:32",129057.000,"cc",28294.910,6.00,6,0.100,113108.000,0.200,13903.000,0.300,1161.000,0.500,635.000,1.000,250.000,5.000,0
"03/08/08","15:04:38",131319.000,"cc",28351.678,6.00,6,0.100,115616.000,0.200,13429.000,0.300,1187.000,0.500,781.000,1.000,306.000,5.000,0
"03/08/08","15:04:44",95111.000,"cc",28351.961,6.00,6,0.100,84040.000,0.200,9363.000,0.300,901.000,0.500,569.000,1.000,238.000,5.000,0
"03/08/08","15:04:50",83929.000,"cc",28289.068,6.00,6,0.100,74199.000,0.200,8216.000,0.300,786.000,0.500,540.000,1.000,188.000,5.000,0
"03/08/08","15:04:56",78030.000,"cc",28350.902,6.00,6,0.100,68834.000,0.200,7710.000,0.300,726.000,0.500,548.000,1.000,212.000,5.000,0
"03/08/08","15:05:02",60675.000,"cc",28286.781,6.00,6,0.100,52871.000,0.200,6186.000,0.300,776.000,0.500,595.000,1.000,247.000,5.000,0
"03/08/08","15:05:08",43825.000,"cc",28338.033,6.00,6,0.100,37307.000,0.200,4793.000,0.300,786.000,0.500,688.000,1.000,251.000,5.000,0
"03/08/08","15:05:14",69100.000,"cc",28337.606,6.00,6,0.100,59924.000,0.200,7210.000,0.300,947.000,0.500,727.000,1.000,292.000,5.000,0
"03/08/08","15:05:20",106016.000,"cc",28340.086,6.00,6,0.100,93262.000,0.200,10630.000,0.300,1085.000,0.500,731.000,1.000,308.000,5.000,0
"03/08/08","15:05:26",102536.000,"cc",28283.750,6.00,6,0.100,89528.000,0.200,10499.000,0.300,1273.000,0.500,896.000,1.000,340.000,5.000,0
"03/08/08","15:05:32",66760.000,"cc",28261.219,6.00,6,0.100,58225.000,0.200,6670.000,0.300,860.000,0.500,710.000,1.000,295.000,5.000,0
"03/08/08","15:05:38",69518.000,"cc",28274.469,6.00,6,0.100,60771.000,0.200,7090.000,0.300,783.000,0.500,629.000,1.000,245.000,5.000,0
"03/08/08","15:05:44",49853.000,"cc",28321.859,6.00,6,0.100,43097.000,0.200,5239.000,0.300,697.000,0.500,571.000,1.000,249.000,5.000,0
"03/08/08","15:05:50",62997.000,"cc",28350.174,6.00,6,0.100,54503.000,0.200,6501.000,0.300,936.000,0.500,753.000,1.000,304.000,5.000,0
"03/08/08","15:05:56",56861.000,"cc",28298.877,6.00,6,0.100,48880.000,0.200,5970.000,0.300,904.000,0.500,763.000,1.000,344.000,5.000,0
"03/08/08","15:06:02",34489.000,"cc",28290.182,6.00,6,0.100,27822.000,0.200,4187.000,0.300,1086.000,0.500,1026.000,1.000,368.000,5.000,0
"03/08/08","15:06:08",57252.000,"cc",28320.775,6.00,6,0.100,48619.000,0.200,6172.000,0.300,1116.000,0.500,969.000,1.000,376.000,5.000,0
"03/08/08","15:06:14",57295.000,"cc",28340.330,6.00,6,0.100,49857.000,0.200,5727.000,0.300,801.000,0.500,662.000,1.000,248.000,5.000,0
"03/08/08","15:06:20",95343.000,"cc",28331.547,6.00,6,0.100,83750.000,0.200,9768.000,0.300,931.000,0.500,651.000,1.000,243.000,5.000,0
"03/08/08","15:06:26",76089.000,"cc",28425.545,6.00,6,0.100,66735.000,0.200,7710.000,0.300,783.000,0.500,616.000,1.000,245.000,5.000,0
"03/08/08","15:06:32",91641.000,"cc",28258.191,6.00,6,0.100,80782.000,0.200,9019.000,0.300,905.000,0.500,677.000,1.000,258.000,5.000,0
"03/08/08","15:06:38",90615.000,"cc",28306.641,6.00,6,0.100,79428.000,0.200,9052.000,0.300,1036.000,0.500,772.000,1.000,327.000,5.000,0
"03/08/08","15:06:44",121063.000,"cc",28302.529,6.00,6,0.100,106078.000,0.200,12099.000,0.300,1449.000,0.500,1025.000,1.000,412.000,5.000,0
"03/08/08","15:06:50",53264.000,"cc",28292.008,6.00,6,0.100,45274.000,0.200,5760.000,0.300,993.000,0.500,905.000,1.000,332.000,5.000,0
"03/08/08","15:06:56",54091.000,"cc",28341.619,6.00,6,0.100,46676.000,0.200,5602.000,0.300,823.000,0.500,736.000,1.000,254.000,5.000,0
"03/08/08","15:07:02",47111.000,"cc",28325.107,6.00,6,0.100,40736.000,0.200,4920.000,0.300,681.000,0.500,556.000,1.000,218.000,5.000,0
"03/08/08","15:07:08",52747.000,"cc",28321.639,6.00,6,0.100,45703.000,0.200,5465.000,0.300,731.000,0.500,622.000,1.000,226.000,5.000,0
"03/08/08","15:07:14",40320.000,"cc",28308.690,6.00,6,0.100,34807.000,0.200,4146.000,0.300,609.000,0.500,552.000,1.000,206.000,5.000,0
"03/08/08","15:07:20",25367.000,"cc",28330.502,6.00,6,0.100,21296.000,0.200,2959.000,0.300,418.000,0.500,519.000,1.000,175.000,5.000,0
"03/08/08","15:07:26",24539.000,"cc",28338.482,6.00,6,0.100,20528.000,0.200,2870.000,0.300,477.000,0.500,482.000,1.000,182.000,5.000,0
"03/08/08","15:07:32",25327.000,"cc",28300.115,6.00,6,0.100,21208.000,0.200,2915.000,0.300,527.000,0.500,482.000,1.000,195.000,5.000,0
"03/08/08","15:07:38",17345.000,"cc",28302.123,6.00,6,0.100,14152.000,0.200,2166.000,0.300,400.000,0.500,437.000,1.000,190.000,5.000,0
"03/08/08","15:07:44",16645.000,"cc",28342.027,6.00,6,0.100,13411.000,0.200,2239.000,0.300,400.000,0.500,439.000,1.000,156.000,5.000,0
"03/08/08","15:07:50",16747.000,"cc",28344.760,6.00,6,0.100,13489.000,0.200,2183.000,0.300,421.000,0.500,472.000,1.000,182.000,5.000,0
"03/08/08","15:07:56",14052.000,"cc",28216.941,6.00,6,0.100,11035.000,0.200,1982.000,0.300,416.000,0.500,458.000,1.000,161.000,5.000,0
"03/08/08","15:08:02",13168.000,"cc",28299.477,6.00,6,0.100,10258.000,0.200,1920.000,0.300,385.000,0.500,426.000,1.000,179.000,5.000,0
"03/08/08","15:08:08",13102.000,"cc",28320.727,6.00,6,0.100,10252.000,0.200,1867.000,0.300,393.000,0.500,430.000,1.000,160.000,5.000,0
"03/08/08","15:08:14",12761.000,"cc",28298.949,6.00,6,0.100,10037.000,0.200,1776.000,0.300,359.000,0.500,418.000,1.000,171.000,5.000,0
"03/08/08","15:08:20",13122.000,"cc",28323.356,6.00,6,0.100,10088.000,0.200,1973.000,0.300,426.000,0.500,445.000,1.000,190.000,5.000,0
"03/08/08","15:08:26",12613.000,"cc",28328.891,6.00,6,0.100,9903.000,0.200,1737.000,0.300,347.000,0.500,466.000,1.000,160.000,5.000,0
"03/08/08","15:08:32",12429.000,"cc",28343.393,6.00,6,0.100,9763.000,0.200,1747.000,0.300,376.000,0.500,387.000,1.000,156.000,5.000,0
"03/08/08","15:08:38",12376.000,"cc",28312.762,6.00,6,0.100,9672.000,0.200,1730.000,0.300,398.000,0.500,416.000,1.000,160.000,5.000,0
"03/08/08","15:08:44",12576.000,"cc",28351.824,6.00,6,0.100,9815.000,0.200,1813.000,0.300,357.000,0.500,426.000,1.000,165.000,5.000,0
"03/08/08","15:08:50",12204.000,"cc",28307.578,6.00,6,0.100,9642.000,0.200,1715.000,0.300,331.000,0.500,384.000,1.000,132.000,5.000,0
"03/08/08","15:08:56",12412.000,"cc",28272.045,6.00,6,0.100,9697.000,0.200,1762.000,0.300,366.000,0.500,411.000,1.000,176.000,5.000,0
"03/08/08","15:09:02",12347.000,"cc",28276.611,6.00,6,0.100,9693.000,0.200,1717.000,0.300,347.000,0.500,431.000,1.000,159.000,5.000,0
"03/08/08","15:09:08",12413.000,"cc",28316.695,6.00,6,0.100,9706.000,0.200,1804.000,0.300,326.000,0.500,423.000,1.000,154.000,5.000,0
"03/08/08","15:09:14",12426.000,"cc",28297.898,6.00,6,0.100,9826.000,0.200,1736.000,0.300,323.000,0.500,403.000,1.000,138.000,5.000,0
"03/08/08","15:09:20",12155.000,"cc",28320.273,6.00,6,0.100,9498.000,0.200,1764.000,0.300,355.000,0.500,414.000,1.000,124.000,5.000,0
"03/08/08","15:09:26",12155.000,"cc",28365.650,6.00,6,0.100,9446.000,0.200,1808.000,0.300,344.000,0.500,398.000,1.000,159.000,5.000,0
"03/08/08","15:09:32",12336.000,"cc",28361.713,6.00,6,0.100,9719.000,0.200,1771.000,0.300,300.000,0.500,405.000,1.000,141.000,5.000,0
"03/08/08","15:09:38",12167.000,"cc",28322.895,6.00,6,0.100,9537.000,0.200,1791.000,0.300,317.000,0.500,388.000,1.000,134.000,5.000,0
"03/08/08","15:09:44",12368.000,"cc",28251.338,6.00,6,0.100,9607.000,0.200,1818.000,0.300,352.000,0.500,428.000,1.000,163.000,5.000,0
"03/08/08","15:09:50",12137.000,"cc",28307.436,6.00,6,0.100,9527.000,0.200,1693.000,0.300,343.000,0.500,428.000,1.000,146.000,5.000,0
"03/08/08","15:09:56",12159.000,"cc",28361.078,6.00,6,0.100,9496.000,0.200,1730.000,0.300,395.000,0.500,390.000,1.000,148.000,5.000,0
"03/08/08","15:10:02",12176.000,"cc",28378.934,6.00,6,0.100,9444.000,0.200,1799.000,0.300,359.000,0.500,415.000,1.000,159.000,5.000,0
"03/08/08","15:10:08",12134.000,"cc",28333.805,6.00,6,0.100,9473.000,0.200,1789.000,0.300,355.000,0.500,375.000,1.000,142.000,5.000,0
"03/08/08","15:10:14",12250.000,"cc",28315.463,6.00,6,0.100,9493.000,0.200,1792.000,0.300,372.000,0.500,436.000,1.000,157.000,5.000,0
"03/08/08","15:10:20",12025.000,"cc",28293.746,6.00,6,0.100,9372.000,0.200,1722.000,0.300,333.000,0.500,432.000,1.000,166.000,5.000,0
"03/08/08","15:10:26",12146.000,"cc",28291.518,6.00,6,0.100,9541.000,0.200,1730.000,0.300,327.000,0.500,376.000,1.000,172.000,5.000,0
"03/08/08","15:10:32",12124.000,"cc",28284.928,6.00,6,0.100,9492.000,0.200,1778.000,0.300,339.000,0.500,374.000,1.000,141.000,5.000,0
"03/08/08","15:10:38",12167.000,"cc",28332.918,6.00,6,0.100,9519.000,0.200,1754.000,0.300,339.000,0.500,419.000,1.000,136.000,5.000,0
"03/08/08","15:10:44",12097.000,"cc",28391.332,6.00,6,0.100,9455.000,0.200,1754.000,0.300,351.000,0.500,397.000,1.000,140.000,5.000,0
"03/08/08","15:10:50",12101.000,"cc",28325.066,6.00,6,0.100,9410.000,0.200,1801.000,0.300,355.000,0.500,397.000,1.000,138.000,5.000,0
"03/08/08","15:10:56",12167.000,"cc",28346.971,6.00,6,0.100,9397.000,0.200,1811.000,0.300,387.000,0.500,407.000,1.000,165.000,5.000,0
"03/08/08","15:11:02",12293.000,"cc",28320.016,6.00,6,0.100,9555.000,0.200,1836.000,0.300,347.000,0.500,411.000,1.000,144.000,5.000,0
"03/08/08","15:11:08",12143.000,"cc",28342.203,6.00,6,0.100,9477.000,0.200,1748.000,0.300,344.000,0.500,389.000,1.000,185.000,5.000,0
"03/08/08","15:11:14",12085.000,"cc",28422.291,6.00,6,0.100,9470.000,0.200,1695.000,0.300,342.000,0.500,438.000,1.000,140.000,5.000,0
"03/08/08","15:11:20",12061.000,"cc",28303.826,6.00,6,0.100,9358.000,0.200,1791.000,0.300,314.000,0.500,422.000,1.000,176.000,5.000,0
"03/08/08","15:11:26",12196.000,"cc",28284.678,6.00,6,0.100,9520.000,0.200,1759.000,0.300,330.000,0.500,433.000,1.000,154.000,5.000,0
"03/08/08","15:11:32",12202.000,"cc",28273.775,6.00,6,0.100,9568.000,0.200,1798.000,0.300,327.000,0.500,366.000,1.000,143.000,5.000,0
"03/08/08","15:11:38",12038.000,"cc",28321.695,6.00,6,0.100,9415.000,0.200,1729.000,0.300,331.000,0.500,408.000,1.000,155.000,5.000,0
"03/08/08","15:11:44",11908.000,"cc",28366.188,6.00,6,0.100,9350.000,0.200,1701.000,0.300,283.000,0.500,424.000,1.000,150.000,5.000,0
"03/08/08","15:11:50",11995.000,"cc",28322.168,6.00,6,0.100,9406.000,0.200,1735.000,0.300,305.000,0.500,384.000,1.000,165.000,5.000,0
"03/08/08","15:11:56",12179.000,"cc",28265.602,6.00,6,0.100,9527.000,0.200,1724.000,0.300,339.000,0.500,427.000,1.000,162.000,5.000,0
"03/08/08","15:12:02",12049.000,"cc",28314.313,6.00,6,0.100,9389.000,0.200,1823.000,0.300,303.000,0.500,358.000,1.000,176.000,5.000,0
"03/08/08","15:12:08",12165.000,"cc",28377.270,6.00,6,0.100,9470.000,0.200,1816.000,0.300,309.000,0.500,407.000,1.000,163.000,5.000,0
"03/08/08","15:12:14",11941.000,"cc",28345.992,6.00,6,0.100,9415.000,0.200,1700.000,0.300,310.000,0.500,378.000,1.000,138.000,5.000,0
"03/08/08","15:12:20",11954.000,"cc",28346.647,6.00,6,0.100,9435.000,0.200,1711.000,0.300,320.000,0.500,356.000,1.000,132.000,5.000,0
"03/08/08","15:12:26",12008.000,"cc",28271.488,6.00,6,0.100,9347.000,0.200,1775.000,0.300,347.000,0.500,388.000,1.000,151.000,5.000,0
"03/08/08","15:12:32",12042.000,"cc",28312.672,6.00,6,0.100,9426.000,0.200,1769.000,0.300,321.000,0.500,366.000,1.000,160.000,5.000,0
"03/08/08","15:12:38",12023.000,"cc",28344.713,6.00,6,0.100,9350.000,0.200,1746.000,0.300,348.000,0.500,439.000,1.000,140.000,5.000,0
"03/08/08","15:12:44",12051.000,"cc",28324.400,6.00,6,0.100,9577.000,0.200,1714.000,0.300,281.000,0.500,342.000,1.000,137.000,5.000,0
"03/08/08","15:12:50",11682.000,"cc",28316.434,6.00,6,0.100,9189.000,0.200,1683.000,0.300,306.000,0.500,365.000,1.000,139.000,5.000,0
"03/08/08","15:12:56",11690.000,"cc",28302.188,6.00,6,0.100,9246.000,0.200,1651.000,0.300,322.000,0.500,348.000,1.000,123.000,5.000,0
"03/08/08","15:13:02",12050.000,"cc",28198.660,6.00,6,0.100,9488.000,0.200,1688.000,0.300,328.000,0.500,389.000,1.000,157.000,5.000,0
"03/08/08","15:13:08",11996.000,"cc",28355.951,6.00,6,0.100,9354.000,0.200,1805.000,0.300,336.000,0.500,376.000,1.000,125.000,5.000,0
"03/08/08","15:13:14",11983.000,"cc",28296.734,6.00,6,0.100,9415.000,0.200,1748.000,0.300,305.000,0.500,373.000,1.000,142.000,5.000,0
"03/08/08","15:13:20",11875.000,"cc",28324.109,6.00,6,0.100,9361.000,0.200,1663.000,0.300,310.000,0.500,402.000,1.000,139.000,5.000,0
"03/08/08","15:13:26",11849.000,"cc",28346.703,6.00,6,0.100,9286.000,0.200,1752.000,0.300,304.000,0.500,359.000,1.000,148.000,5.000,0
"03/08/08","15:13:32",12008.000,"cc",28319.627,6.00,6,0.100,9497.000,0.200,1754.000,0.300,307.000,0.500,321.000,1.000,129.000,5.000,0
"03/08/08","15:13:38",11887.000,"cc",28310.486,6.00,6,0.100,9473.000,0.200,1638.000,0.300,285.000,0.500,363.000,1.000,128.000,5.000,0
"03/08/08","15:13:44",11866.000,"cc",28333.227,6.00,6,0.100,9288.000,0.200,1709.000,0.300,336.000,0.500,389.000,1.000,144.000,5.000,0
"03/08/08","15:13:50",11819.000,"cc",28324.760,6.00,6,0.100,9261.000,0.200,1706.000,0.300,317.000,0.500,395.000,1.000,140.000,5.000,0
"03/08/08","15:13:56",12030.000,"cc",28418.736,6.00,6,0.100,9460.000,0.200,1746.000,0.300,301.000,0.500,377.000,1.000,146.000,5.000,0
"03/08/08","15:14:02",11821.000,"cc",28300.459,6.00,6,0.100,9290.000,0.200,1648.000,0.300,312.000,0.500,394.000,1.000,177.000,5.000,0
"03/08/08","15:14:08",11839.000,"cc",28256.451,6.00,6,0.100,9304.000,0.200,1675.000,0.300,334.000,0.500,377.000,1.000,149.000,5.000,0
"03/08/08","15:14:14",11738.000,"cc",28283.340,6.00,6,0.100,9178.000,0.200,1717.000,0.300,315.000,0.500,391.000,1.000,137.000,5.000,0
"03/08/08","15:14:20",11983.000,"cc",28321.922,6.00,6,0.100,9393.000,0.200,1757.000,0.300,325.000,0.500,376.000,1.000,132.000,5.000,0
"03/08/08","15:14:26",11792.000,"cc",28252.094,6.00,6,0.100,9307.000,0.200,1658.000,0.300,327.000,0.500,361.000,1.000,139.000,5.000,0
"03/08/08","15:14:32",12063.000,"cc",28251.422,6.00,6,0.100,9440.000,0.200,1748.000,0.300,344.000,0.500,389.000,1.000,142.000,5.000,0
"03/08/08","15:14:38",11782.000,"cc",28330.244,6.00,6,0.100,9198.000,0.200,1687.000,0.300,352.000,0.500,384.000,1.000,161.000,5.000,0
"03/08/08","15:14:44",11839.000,"cc",28326.768,6.00,6,0.100,9245.000,0.200,1746.000,0.300,341.000,0.500,371.000,1.000,136.000,5.000,0
"03/08/08","15:14:50",11746.000,"cc",28272.879,6.00,6,0.100,9177.000,0.200,1698.000,0.300,328.000,0.500,388.000,1.000,155.000,5.000,0
"03/08/08","15:14:56",11776.000,"cc",28338.961,6.00,6,0.100,9229.000,0.200,1755.000,0.300,299.000,0.500,372.000,1.000,121.000,5.000,0
"03/08/08","15:15:02",11461.000,"cc",28268.363,6.00,6,0.100,8990.000,0.200,1654.000,0.300,317.000,0.500,352.000,1.000,148.000,5.000,0
"03/08/08","15:15:08",11756.000,"cc",28336.768,6.00,6,0.100,9195.000,0.200,1730.000,0.300,320.000,0.500,362.000,1.000,149.000,5.000,0
"03/08/08","15:15:14",11810.000,"cc",28321.275,6.00,6,0.100,9300.000,0.200,1656.000,0.300,330.000,0.500,405.000,1.000,119.000,5.000,0
"03/08/08","15:15:20",11755.000,"cc",28425.303,6.00,6,0.100,9128.000,0.200,1725.000,0.300,354.000,0.500,395.000,1.000,153.000,5.000,0
"03/08/08","15:15:26",11858.000,"cc",28287.379,6.00,6,0.100,9269.000,0.200,1692.000,0.300,353.000,0.500,413.000,1.000,131.000,5.000,0
"03/08/08","15:15:32",12092.000,"cc",28326.139,6.00,6,0.100,9430.000,0.200,1720.000,0.300,357.000,0.500,432.000,1.000,153.000,5.000,0
"03/08/08","15:15:38",11940.000,"cc",28315.768,6.00,6,0.100,9240.000,0.200,1776.000,0.300,323.000,0.500,429.000,1.000,172.000,5.000,0
"03/08/08","15:15:44",11742.000,"cc",28272.272,6.00,6,0.100,9163.000,0.200,1691.000,0.300,344.000,0.500,377.000,1.000,167.000,5.000,0
"03/08/08","15:15:50",11851.000,"cc",28373.777,6.00,6,0.100,9182.000,0.200,1765.000,0.300,335.000,0.500,400.000,1.000,169.000,5.000,0
"03/08/08","15:15:56",11755.000,"cc",28301.443,6.00,6,0.100,9166.000,0.200,1698.000,0.300,321.000,0.500,414.000,1.000,156.000,5.000,0
"03/08/08","15:16:02",11714.000,"cc",28251.484,6.00,6,0.100,9154.000,0.200,1654.000,0.300,348.000,0.500,387.000,1.000,171.000,5.000,0
"03/08/08","15:16:08",11869.000,"cc",28348.963,6.00,6,0.100,9185.000,0.200,1797.000,0.300,340.000,0.500,390.000,1.000,157.000,5.000,0
"03/08/08","15:16:14",11770.000,"cc",28296.732,6.00,6,0.100,9150.000,0.200,1726.000,0.300,351.000,0.500,385.000,1.000,158.000,5.000,0
"03/08/08","15:16:20",11830.000,"cc",28301.529,6.00,6,0.100,9185.000,0.200,1733.000,0.300,360.000,0.500,407.000,1.000,145.000,5.000,0
"03/08/08","15:16:26",11961.000,"cc",28340.660,6.00,6,0.100,9290.000,0.200,1770.000,0.300,365.000,0.500,398.000,1.000,138.000,5.000,0
"03/08/08","15:16:32",11746.000,"cc",28362.750,6.00,6,0.100,9174.000,0.200,1707.000,0.300,325.000,0.500,381.000,1.000,159.000,5.000,0